Time,TemperatureF,DewpointF,PressureIn,WindDirection,WindDirectionDegrees,WindSpeedMPH,WindSpeedGustMPH,Humidity,HourlyPrecipIn,Conditions,Clouds,dailyrainin,SoftwareType,DateUTC
2013-02-27 00:01:00,16.0,5.0,30.13,North,0,0.0,1.0,60,0.00,,,0.00,,2013-02-27 07:01:00,
2013-02-27 00:21:00,16.0,5.0,30.13,NNE,22,3.0,4.0,60,0.00,,,0.00,,2013-02-27 07:21:00,
2013-02-27 00:31:00,21.0,3.0,30.14,NNE,18,7.0,10.0,44,0.00,,,0.00,,2013-02-27 07:31:00,
2013-02-27 00:41:00,21.0,3.0,30.14,NNE,18,7.0,10.0,44,0.00,,,0.00,,2013-02-27 07:41:00,
2013-02-27 00:51:00,23.0,1.0,30.15,NNE,12,8.0,10.0,37,0.00,,,0.00,,2013-02-27 07:51:00,
2013-02-27 01:01:00,23.0,2.0,30.15,North,2,6.0,10.0,39,0.00,,,0.00,,2013-02-27 08:01:00,
2013-02-27 01:11:00,23.0,2.0,30.15,North,2,6.0,10.0,39,0.00,,,0.00,,2013-02-27 08:11:00,
2013-02-27 01:21:00,23.0,1.0,30.15,North,8,7.0,13.0,38,0.00,,,0.00,,2013-02-27 08:21:00,
2013-02-27 01:31:00,23.0,-1.0,30.16,NNE,25,7.0,9.0,35,0.00,,,0.00,,2013-02-27 08:31:00,
2013-02-27 01:41:00,23.0,-1.0,30.16,NNE,25,7.0,9.0,35,0.00,,,0.00,,2013-02-27 08:41:00,
2013-02-27 01:52:00,23.0,0.0,30.17,NNE,27,5.0,9.0,36,0.00,,,0.00,,2013-02-27 08:52:00,
2013-02-27 02:01:00,23.0,0.0,30.17,NNE,27,5.0,9.0,36,0.00,,,0.00,,2013-02-27 09:01:00,
2013-02-27 02:11:00,23.0,0.0,30.17,NNE,27,5.0,9.0,36,0.00,,,0.00,,2013-02-27 09:11:00,
2013-02-27 02:21:00,23.0,0.0,30.17,NNE,27,5.0,9.0,36,0.00,,,0.00,,2013-02-27 09:21:00,
2013-02-27 02:31:00,22.0,0.0,30.15,NE,44,5.0,9.0,37,0.00,,,0.00,,2013-02-27 09:31:00,
2013-02-27 02:42:00,22.0,0.0,30.15,NE,44,5.0,9.0,37,0.00,,,0.00,,2013-02-27 09:42:00,
2013-02-27 02:52:00,22.0,0.0,30.15,NNE,23,5.0,10.0,38,0.00,,,0.00,,2013-02-27 09:52:00,
2013-02-27 03:01:00,21.0,1.0,30.15,NE,36,3.0,5.0,40,0.00,,,0.00,,2013-02-27 10:01:00,
2013-02-27 03:12:00,21.0,1.0,30.15,NE,36,3.0,5.0,40,0.00,,,0.00,,2013-02-27 10:12:00,
2013-02-27 03:21:00,21.0,1.0,30.15,NE,36,3.0,5.0,40,0.00,,,0.00,,2013-02-27 10:21:00,
2013-02-27 03:31:00,20.0,1.0,30.16,NNE,26,3.0,5.0,42,0.00,,,0.00,,2013-02-27 10:31:00,
2013-02-27 03:41:00,20.0,1.0,30.16,NNE,26,3.0,5.0,42,0.00,,,0.00,,2013-02-27 10:41:00,
2013-02-27 03:52:00,18.0,1.0,30.16,North,0,0.0,1.0,46,0.00,,,0.00,,2013-02-27 10:52:00,
2013-02-27 04:01:00,17.0,1.0,30.17,North,0,0.0,1.0,48,0.00,,,0.00,,2013-02-27 11:01:00,
2013-02-27 04:11:00,17.0,1.0,30.17,North,0,0.0,1.0,48,0.00,,,0.00,,2013-02-27 11:11:00,
2013-02-27 04:21:00,16.0,2.0,30.17,NE,43,4.0,6.0,53,0.00,,,0.00,,2013-02-27 11:21:00,
2013-02-27 04:31:00,18.0,2.0,30.15,NE,37,7.0,9.0,49,0.00,,,0.00,,2013-02-27 11:31:00,
2013-02-27 04:41:00,18.0,2.0,30.15,NE,37,7.0,9.0,49,0.00,,,0.00,,2013-02-27 11:41:00,
2013-02-27 04:52:00,19.0,3.0,30.15,NNE,17,6.0,10.0,48,0.00,,,0.00,,2013-02-27 11:52:00,
2013-02-27 05:01:00,19.0,3.0,30.16,North,8,2.0,6.0,48,0.00,,,0.00,,2013-02-27 12:01:00,
2013-02-27 05:12:00,19.0,3.0,30.16,North,8,2.0,6.0,48,0.00,,,0.00,,2013-02-27 12:12:00,
2013-02-27 05:21:00,19.0,3.0,30.16,NE,43,1.0,4.0,48,0.00,,,0.00,,2013-02-27 12:21:00,
2013-02-27 05:32:00,18.0,2.0,30.18,North,0,0.0,1.0,49,0.00,,,0.00,,2013-02-27 12:32:00,
2013-02-27 05:41:00,18.0,2.0,30.18,North,0,0.0,1.0,49,0.00,,,0.00,,2013-02-27 12:41:00,
2013-02-27 05:52:00,18.0,2.0,30.18,North,0,0.0,1.0,49,0.00,,,0.00,,2013-02-27 12:52:00,
2013-02-27 06:02:00,20.0,3.0,30.18,NNE,19,3.0,7.0,46,0.00,,,0.00,,2013-02-27 13:02:00,
2013-02-27 06:11:00,20.0,3.0,30.18,NNE,19,3.0,7.0,46,0.00,,,0.00,,2013-02-27 13:11:00,
2013-02-27 06:21:00,20.0,3.0,30.18,NNE,19,3.0,7.0,46,0.00,,,0.00,,2013-02-27 13:21:00,
2013-02-27 06:31:00,19.0,3.0,30.18,NNE,15,8.0,10.0,50,0.00,,,0.00,,2013-02-27 13:31:00,
2013-02-27 06:41:00,19.0,3.0,30.18,NNE,15,8.0,10.0,50,0.00,,,0.00,,2013-02-27 13:41:00,
2013-02-27 06:52:00,19.0,3.0,30.19,NNE,12,5.0,7.0,49,0.00,,,0.00,,2013-02-27 13:52:00,
2013-02-27 07:01:00,19.0,3.0,30.20,North,7,5.0,7.0,48,0.00,,,0.00,,2013-02-27 14:01:00,
2013-02-27 07:11:00,19.0,3.0,30.20,North,7,5.0,7.0,48,0.00,,,0.00,,2013-02-27 14:11:00,
2013-02-27 07:21:00,19.0,3.0,30.21,NNE,12,6.0,9.0,49,0.00,,,0.00,,2013-02-27 14:21:00,
2013-02-27 07:31:00,18.0,3.0,30.20,NNE,33,4.0,9.0,51,0.00,,,0.00,,2013-02-27 14:31:00,
2013-02-27 07:41:00,18.0,3.0,30.20,NNE,33,4.0,9.0,51,0.00,,,0.00,,2013-02-27 14:41:00,
2013-02-27 07:52:00,19.0,4.0,30.21,NNE,21,6.0,9.0,51,0.00,,,0.00,,2013-02-27 14:52:00,
2013-02-27 08:01:00,20.0,6.0,30.21,North,6,4.0,8.0,53,0.00,,,0.00,,2013-02-27 15:01:00,
2013-02-27 08:11:00,20.0,6.0,30.21,North,6,4.0,8.0,53,0.00,,,0.00,,2013-02-27 15:11:00,
2013-02-27 08:21:00,22.0,6.0,30.21,NNE,18,7.0,10.0,50,0.00,,,0.00,,2013-02-27 15:21:00,
2013-02-27 08:31:00,25.0,7.0,30.21,NNE,17,7.0,13.0,45,0.00,,,0.00,,2013-02-27 15:31:00,
2013-02-27 08:42:00,25.0,7.0,30.21,NNE,17,7.0,13.0,45,0.00,,,0.00,,2013-02-27 15:42:00,
2013-02-27 08:51:00,25.0,6.0,30.22,NNE,23,9.0,17.0,43,0.00,,,0.00,,2013-02-27 15:51:00,
2013-02-27 09:01:00,26.0,7.0,30.22,NNE,18,10.0,16.0,43,0.00,,,0.00,,2013-02-27 16:01:00,
2013-02-27 09:11:00,26.0,7.0,30.22,NNE,18,10.0,16.0,43,0.00,,,0.00,,2013-02-27 16:11:00,
2013-02-27 09:21:00,27.0,7.0,30.22,NNE,18,10.0,17.0,42,0.00,,,0.00,,2013-02-27 16:21:00,
2013-02-27 09:31:00,27.0,7.0,30.22,NNE,18,9.0,17.0,42,0.00,,,0.00,,2013-02-27 16:31:00,
2013-02-27 09:41:00,27.0,7.0,30.22,NNE,18,9.0,17.0,42,0.00,,,0.00,,2013-02-27 16:41:00,
2013-02-27 09:52:00,27.0,7.0,30.22,NNE,18,9.0,17.0,42,0.00,,,0.00,,2013-02-27 16:52:00,
2013-02-27 10:01:00,29.0,8.0,30.22,NNE,15,10.0,15.0,40,0.00,,,0.00,,2013-02-27 17:01:00,
2013-02-27 10:11:00,29.0,8.0,30.22,NNE,15,10.0,15.0,40,0.00,,,0.00,,2013-02-27 17:11:00,
2013-02-27 10:21:00,29.0,7.0,30.23,NNE,27,10.0,16.0,39,0.00,,,0.00,,2013-02-27 17:21:00,
2013-02-27 10:32:00,30.0,6.0,30.24,NE,52,10.0,15.0,36,0.00,,,0.00,,2013-02-27 17:32:00,
2013-02-27 10:41:00,30.0,6.0,30.24,NE,52,10.0,15.0,36,0.00,,,0.00,,2013-02-27 17:41:00,
2013-02-27 10:52:00,30.0,6.0,30.24,NNE,26,9.0,16.0,35,0.00,,,0.00,,2013-02-27 17:52:00,
2013-02-27 11:01:00,30.0,6.0,30.24,North,6,7.0,13.0,35,0.00,,,0.00,,2013-02-27 18:01:00,
2013-02-27 11:11:00,30.0,6.0,30.24,North,6,7.0,13.0,35,0.00,,,0.00,,2013-02-27 18:11:00,
2013-02-27 11:21:00,31.0,7.0,30.23,NE,35,8.0,14.0,35,0.00,,,0.00,,2013-02-27 18:21:00,
2013-02-27 11:31:00,32.0,7.0,30.24,NE,43,9.0,18.0,34,0.00,,,0.00,,2013-02-27 18:31:00,
2013-02-27 11:41:00,32.0,7.0,30.24,NE,43,9.0,18.0,34,0.00,,,0.00,,2013-02-27 18:41:00,
2013-02-27 11:52:00,32.0,7.0,30.24,NE,43,9.0,18.0,34,0.00,,,0.00,,2013-02-27 18:52:00,
2013-02-27 12:01:00,32.0,7.0,30.24,NE,43,9.0,18.0,34,0.00,,,0.00,,2013-02-27 19:01:00,
2013-02-27 12:21:00,33.0,4.0,30.24,North,3,5.0,18.0,29,0.00,,,0.00,,2013-02-27 19:21:00,
2013-02-27 12:32:00,34.0,4.0,30.24,ENE,68,7.0,16.0,28,0.00,,,0.00,,2013-02-27 19:32:00,
2013-02-27 12:42:00,34.0,4.0,30.24,ENE,68,7.0,16.0,28,0.00,,,0.00,,2013-02-27 19:42:00,
2013-02-27 12:51:00,35.0,4.0,30.23,NE,36,5.0,15.0,27,0.00,,,0.00,,2013-02-27 19:51:00,
2013-02-27 13:01:00,35.0,6.0,30.23,East,89,8.0,14.0,29,0.00,,,0.00,,2013-02-27 20:01:00,
2013-02-27 13:11:00,35.0,6.0,30.23,East,89,8.0,14.0,29,0.00,,,0.00,,2013-02-27 20:11:00,
2013-02-27 13:21:00,35.0,4.0,30.23,NE,54,9.0,16.0,27,0.00,,,0.00,,2013-02-27 20:21:00,
2013-02-27 13:31:00,36.0,4.0,30.23,NNE,32,11.0,15.0,26,0.00,,,0.00,,2013-02-27 20:31:00,
2013-02-27 13:41:00,36.0,4.0,30.23,NNE,32,11.0,15.0,26,0.00,,,0.00,,2013-02-27 20:41:00,
2013-02-27 13:52:00,36.0,4.0,30.23,NNE,32,11.0,15.0,26,0.00,,,0.00,,2013-02-27 20:52:00,
2013-02-27 14:01:00,36.0,0.0,30.22,NNW,343,7.0,15.0,21,0.00,,,0.00,,2013-02-27 21:01:00,
2013-02-27 14:11:00,36.0,0.0,30.22,NNW,343,7.0,15.0,21,0.00,,,0.00,,2013-02-27 21:11:00,
2013-02-27 14:21:00,36.0,-1.0,30.22,NNE,27,6.0,14.0,20,0.00,,,0.00,,2013-02-27 21:21:00,
2013-02-27 14:31:00,36.0,-1.0,30.22,NNE,27,6.0,14.0,20,0.00,,,0.00,,2013-02-27 21:31:00,
2013-02-27 14:42:00,36.0,-1.0,30.22,NNE,27,6.0,14.0,20,0.00,,,0.00,,2013-02-27 21:42:00,
2013-02-27 14:51:00,37.0,-1.0,30.22,NNE,17,8.0,16.0,19,0.00,,,0.00,,2013-02-27 21:51:00,
2013-02-27 15:01:00,38.0,-2.0,30.22,North,7,7.0,13.0,18,0.00,,,0.00,,2013-02-27 22:01:00,
2013-02-27 15:11:00,38.0,-2.0,30.22,North,7,7.0,13.0,18,0.00,,,0.00,,2013-02-27 22:11:00,
2013-02-27 15:21:00,38.0,1.0,30.22,ENE,63,6.0,15.0,20,0.00,,,0.00,,2013-02-27 22:21:00,
2013-02-27 15:31:00,38.0,1.0,30.21,North,356,4.0,13.0,20,0.00,,,0.00,,2013-02-27 22:31:00,
2013-02-27 15:41:00,38.0,1.0,30.21,North,356,4.0,13.0,20,0.00,,,0.00,,2013-02-27 22:41:00,
2013-02-27 15:51:00,38.0,-1.0,30.22,North,1,8.0,17.0,19,0.00,,,0.00,,2013-02-27 22:51:00,
2013-02-27 16:01:00,38.0,-1.0,30.22,North,1,8.0,17.0,19,0.00,,,0.00,,2013-02-27 23:01:00,
2013-02-27 16:11:00,38.0,-1.0,30.22,North,1,8.0,17.0,19,0.00,,,0.00,,2013-02-27 23:11:00,
2013-02-27 16:21:00,38.0,1.0,30.22,NNE,33,11.0,16.0,20,0.00,,,0.00,,2013-02-27 23:21:00,
2013-02-27 16:31:00,38.0,1.0,30.22,NNE,33,11.0,16.0,20,0.00,,,0.00,,2013-02-27 23:31:00,
2013-02-27 16:42:00,38.0,1.0,30.22,NNE,33,11.0,16.0,20,0.00,,,0.00,,2013-02-27 23:42:00,
2013-02-27 16:52:00,38.0,-1.0,30.22,NE,36,8.0,16.0,19,0.00,,,0.00,,2013-02-27 23:52:00,
2013-02-27 17:01:00,38.0,-1.0,30.22,NE,36,8.0,16.0,19,0.00,,,0.00,,2013-02-28 00:01:00,
2013-02-27 17:11:00,38.0,-1.0,30.22,NE,36,8.0,16.0,19,0.00,,,0.00,,2013-02-28 00:11:00,
2013-02-27 17:21:00,38.0,1.0,30.22,NE,41,8.0,12.0,20,0.00,,,0.00,,2013-02-28 00:21:00,
2013-02-27 17:32:00,37.0,0.0,30.22,NNE,29,9.0,14.0,20,0.00,,,0.00,,2013-02-28 00:32:00,
2013-02-27 17:42:00,37.0,0.0,30.22,NNE,29,9.0,14.0,20,0.00,,,0.00,,2013-02-28 00:42:00,
2013-02-27 17:52:00,36.0,-2.0,30.23,NNE,26,7.0,15.0,19,0.00,,,0.00,,2013-02-28 00:52:00,
2013-02-27 18:01:00,36.0,-3.0,30.23,NNE,13,10.0,14.0,18,0.00,,,0.00,,2013-02-28 01:01:00,
2013-02-27 18:11:00,36.0,-3.0,30.23,NNE,13,10.0,14.0,18,0.00,,,0.00,,2013-02-28 01:11:00,
2013-02-27 18:21:00,34.0,-4.0,30.24,NNE,29,7.0,13.0,19,0.00,,,0.00,,2013-02-28 01:21:00,
2013-02-27 18:31:00,33.0,-4.0,30.25,NNE,29,7.0,11.0,20,0.00,,,0.00,,2013-02-28 01:31:00,
2013-02-27 18:41:00,33.0,-4.0,30.25,NNE,29,7.0,11.0,20,0.00,,,0.00,,2013-02-28 01:41:00,
2013-02-27 18:52:00,32.0,-2.0,30.24,NNE,21,8.0,11.0,23,0.00,,,0.00,,2013-02-28 01:52:00,
2013-02-27 19:01:00,32.0,-1.0,30.25,NNE,25,9.0,13.0,24,0.00,,,0.00,,2013-02-28 02:01:00,
2013-02-27 19:11:00,32.0,-1.0,30.25,NNE,25,9.0,13.0,24,0.00,,,0.00,,2013-02-28 02:11:00,
2013-02-27 19:21:00,30.0,0.0,30.26,NE,54,6.0,10.0,27,0.00,,,0.00,,2013-02-28 02:21:00,
2013-02-27 19:31:00,29.0,1.0,30.27,NNE,22,3.0,7.0,29,0.00,,,0.00,,2013-02-28 02:31:00,
2013-02-27 19:41:00,29.0,1.0,30.27,NNE,22,3.0,7.0,29,0.00,,,0.00,,2013-02-28 02:41:00,
2013-02-27 19:51:00,29.0,1.0,30.27,NNE,22,3.0,7.0,29,0.00,,,0.00,,2013-02-28 02:51:00,
2013-02-27 20:01:00,29.0,1.0,30.27,ENE,59,4.0,9.0,30,0.00,,,0.00,,2013-02-28 03:01:00,
2013-02-27 20:11:00,29.0,1.0,30.27,ENE,59,4.0,9.0,30,0.00,,,0.00,,2013-02-28 03:11:00,
2013-02-27 20:21:00,27.0,1.0,30.28,NE,46,2.0,5.0,32,0.00,,,0.00,,2013-02-28 03:21:00,
2013-02-27 20:31:00,28.0,1.0,30.28,NNE,23,6.0,10.0,31,0.00,,,0.00,,2013-02-28 03:31:00,
2013-02-27 20:41:00,28.0,1.0,30.28,NNE,23,6.0,10.0,31,0.00,,,0.00,,2013-02-28 03:41:00,
2013-02-27 20:52:00,29.0,1.0,30.29,North,8,7.0,11.0,30,0.00,,,0.00,,2013-02-28 03:52:00,
2013-02-27 21:01:00,29.0,1.0,30.28,NE,47,5.0,9.0,29,0.00,,,0.00,,2013-02-28 04:01:00,
2013-02-27 21:11:00,29.0,1.0,30.28,NE,47,5.0,9.0,29,0.00,,,0.00,,2013-02-28 04:11:00,
2013-02-27 21:21:00,29.0,1.0,30.28,NE,46,6.0,8.0,29,0.00,,,0.00,,2013-02-28 04:21:00,
2013-02-27 21:31:00,28.0,0.0,30.28,NE,42,9.0,12.0,29,0.00,,,0.00,,2013-02-28 04:31:00,
2013-02-27 21:41:00,28.0,0.0,30.28,NE,42,9.0,12.0,29,0.00,,,0.00,,2013-02-28 04:41:00,
2013-02-27 21:51:00,28.0,0.0,30.28,NE,46,9.0,13.0,29,0.00,,,0.00,,2013-02-28 04:51:00,
2013-02-27 22:01:00,28.0,-1.0,30.27,NE,50,9.0,15.0,28,0.00,,,0.00,,2013-02-28 05:01:00,
2013-02-27 22:11:00,28.0,-1.0,30.27,NE,50,9.0,15.0,28,0.00,,,0.00,,2013-02-28 05:11:00,
2013-02-27 22:22:00,29.0,-1.0,30.28,NE,34,10.0,15.0,27,0.00,,,0.00,,2013-02-28 05:22:00,
2013-02-27 22:31:00,27.0,-2.0,30.27,NE,50,7.0,9.0,28,0.00,,,0.00,,2013-02-28 05:31:00,
2013-02-27 22:42:00,27.0,-2.0,30.27,NE,50,7.0,9.0,28,0.00,,,0.00,,2013-02-28 05:42:00,
2013-02-27 22:51:00,27.0,-2.0,30.27,NE,42,8.0,12.0,27,0.00,,,0.00,,2013-02-28 05:51:00,
2013-02-27 23:01:00,27.0,-2.0,30.28,NE,44,7.0,10.0,27,0.00,,,0.00,,2013-02-28 06:01:00,
2013-02-27 23:11:00,27.0,-2.0,30.28,NE,44,7.0,10.0,27,0.00,,,0.00,,2013-02-28 06:11:00,
2013-02-27 23:21:00,28.0,-3.0,30.28,NNE,33,8.0,11.0,25,0.00,,,0.00,,2013-02-28 06:21:00,
2013-02-27 23:32:00,25.0,-1.0,30.27,North,4,5.0,8.0,32,0.00,,,0.00,,2013-02-28 06:32:00,
2013-02-27 23:41:00,25.0,-1.0,30.27,North,4,5.0,8.0,32,0.00,,,0.00,,2013-02-28 06:41:00,
2013-02-27 23:51:00,24.0,0.0,30.27,North,4,3.0,6.0,34,0.00,,,0.00,,2013-02-28 06:51:00,